Time,TemperatureF,DewpointF,PressureIn,WindDirection,WindDirectionDegrees,WindSpeedMPH,WindSpeedGustMPH,Humidity,HourlyPrecipIn,Conditions,Clouds,dailyrainin,SoftwareType,DateUTC
2013-10-23 00:01:00,39.2,34.2,29.84,SSW,193,0.0,0.0,82,0.00,,,0.29,Wunderground v.1.15,2013-10-23 04:01:00,
2013-10-23 00:02:00,39.2,34.2,29.84,SSW,193,0.0,0.0,82,0.00,,,0.00,Wunderground v.1.15,2013-10-23 04:02:00,
2013-10-23 00:03:00,39.2,34.2,29.84,SSW,194,0.0,0.0,82,0.00,,,0.00,Wunderground v.1.15,2013-10-23 04:03:00,
2013-10-23 00:04:00,39.2,34.2,29.84,SSW,194,0.0,0.0,82,0.00,,,0.00,Wunderground v.1.15,2013-10-23 04:04:00,
2013-10-23 00:05:00,39.2,34.2,29.84,SSW,194,0.0,0.0,82,0.00,,,0.00,Wunderground v.1.15,2013-10-23 04:05:00,
2013-10-23 00:10:00,39.1,34.1,29.84,SSW,193,0.0,0.0,82,0.00,,,0.00,Wunderground v.1.15,2013-10-23 04:10:00,
2013-10-23 00:16:00,39.0,34.3,29.84,SSW,193,0.0,0.0,83,0.00,,,0.00,Wunderground v.1.15,2013-10-23 04:16:00,
2013-10-23 00:21:00,39.0,34.3,29.84,South,176,0.0,0.0,83,0.00,,,0.00,Wunderground v.1.15,2013-10-23 04:21:00,
2013-10-23 00:26:00,39.0,34.6,29.84,South,176,0.0,0.0,84,0.00,,,0.00,Wunderground v.1.15,2013-10-23 04:26:00,
2013-10-23 00:31:00,38.9,34.5,29.84,South,176,0.0,0.0,84,0.00,,,0.00,Wunderground v.1.15,2013-10-23 04:31:00,
2013-10-23 00:36:00,38.8,34.4,29.84,South,176,0.0,0.0,84,0.00,,,0.00,Wunderground v.1.15,2013-10-23 04:36:00,
2013-10-23 00:40:00,38.8,34.4,29.83,South,176,0.0,0.0,84,0.00,,,0.00,Wunderground v.1.15,2013-10-23 04:40:00,
2013-10-23 00:45:00,38.7,34.6,29.84,South,186,0.0,0.0,85,0.00,,,0.00,Wunderground v.1.15,2013-10-23 04:45:00,
2013-10-23 00:51:00,38.7,34.9,29.84,WNW,295,0.0,0.0,86,0.00,,,0.00,Wunderground v.1.15,2013-10-23 04:51:00,
2013-10-23 00:56:00,38.7,35.2,29.84,NNW,335,0.0,0.0,87,0.00,,,0.00,Wunderground v.1.15,2013-10-23 04:56:00,
2013-10-23 01:01:00,38.5,35.0,29.84,NNW,335,0.0,0.0,87,0.00,,,0.00,Wunderground v.1.15,2013-10-23 05:01:00,
2013-10-23 01:06:00,38.5,35.3,29.83,NNW,335,0.0,0.0,88,0.00,,,0.00,Wunderground v.1.15,2013-10-23 05:06:00,
2013-10-23 01:11:00,38.5,35.3,29.83,NNW,335,0.0,0.0,88,0.00,,,0.00,Wunderground v.1.15,2013-10-23 05:11:00,
2013-10-23 01:16:00,38.4,35.2,29.83,NNW,335,0.0,0.0,88,0.00,,,0.00,Wunderground v.1.15,2013-10-23 05:16:00,
2013-10-23 01:22:00,38.3,35.1,29.83,NNW,333,0.0,0.0,88,0.00,,,0.00,Wunderground v.1.15,2013-10-23 05:22:00,
2013-10-23 01:27:00,38.3,35.1,29.83,SW,226,0.0,0.0,88,0.00,,,0.00,Wunderground v.1.15,2013-10-23 05:27:00,
2013-10-23 01:32:00,38.3,35.3,29.83,SW,226,0.0,0.0,89,0.00,,,0.00,Wunderground v.1.15,2013-10-23 05:32:00,
2013-10-23 01:37:00,38.3,35.3,29.83,SW,226,0.0,0.0,89,0.00,,,0.00,Wunderground v.1.15,2013-10-23 05:37:00,
2013-10-23 01:43:00,38.3,35.1,29.83,SW,222,0.0,1.0,88,0.00,,,0.00,Wunderground v.1.15,2013-10-23 05:43:00,
2013-10-23 01:48:00,38.4,35.2,29.83,SW,222,0.0,1.0,88,0.00,,,0.00,Wunderground v.1.15,2013-10-23 05:48:00,
2013-10-23 01:53:00,38.6,35.4,29.83,SSE,156,0.0,0.0,88,0.00,,,0.00,Wunderground v.1.15,2013-10-23 05:53:00,
2013-10-23 01:58:00,38.7,35.2,29.83,SSE,158,0.0,0.0,87,0.00,,,0.00,Wunderground v.1.15,2013-10-23 05:58:00,
2013-10-23 02:03:00,38.8,35.0,29.83,SSE,158,0.0,0.0,86,0.00,,,0.00,Wunderground v.1.15,2013-10-23 06:03:00,
2013-10-23 02:09:00,39.0,34.9,29.83,SW,232,0.0,0.0,85,0.00,,,0.00,Wunderground v.1.15,2013-10-23 06:09:00,
2013-10-23 02:14:00,39.2,35.1,29.82,SW,233,0.0,1.0,85,0.00,,,0.00,Wunderground v.1.15,2013-10-23 06:14:00,
2013-10-23 02:19:00,39.3,35.2,29.82,SSE,160,0.0,1.0,85,0.00,,,0.00,Wunderground v.1.15,2013-10-23 06:19:00,
2013-10-23 02:24:00,39.3,34.9,29.82,SE,131,0.0,0.0,84,0.00,,,0.00,Wunderground v.1.15,2013-10-23 06:24:00,
2013-10-23 02:30:00,39.3,35.2,29.82,SW,236,0.0,0.0,85,0.00,,,0.00,Wunderground v.1.15,2013-10-23 06:30:00,
2013-10-23 02:35:00,39.3,35.2,29.82,South,190,0.0,0.0,85,0.00,,,0.00,Wunderground v.1.15,2013-10-23 06:35:00,
2013-10-23 02:40:00,39.2,35.1,29.82,SSW,208,0.0,0.0,85,0.00,,,0.00,Wunderground v.1.15,2013-10-23 06:40:00,
2013-10-23 02:46:00,39.1,35.0,29.82,WSW,252,0.0,2.0,85,0.00,,,0.00,Wunderground v.1.15,2013-10-23 06:46:00,
2013-10-23 02:51:00,39.1,35.0,29.82,WSW,243,1.0,1.0,85,0.00,,,0.00,Wunderground v.1.15,2013-10-23 06:51:00,
2013-10-23 02:56:00,39.1,35.0,29.82,SE,144,1.0,2.0,85,0.00,,,0.00,Wunderground v.1.15,2013-10-23 06:56:00,
2013-10-23 03:01:00,39.0,34.9,29.82,SW,231,1.0,1.0,85,0.00,,,0.00,Wunderground v.1.15,2013-10-23 07:01:00,
2013-10-23 03:06:00,38.9,35.1,29.82,West,260,1.0,4.0,86,0.00,,,0.00,Wunderground v.1.15,2013-10-23 07:06:00,
2013-10-23 03:11:00,38.7,34.9,29.81,WNW,283,1.0,1.0,86,0.00,,,0.00,Wunderground v.1.15,2013-10-23 07:11:00,
2013-10-23 03:16:00,38.6,34.8,29.81,West,270,0.0,2.0,86,0.00,,,0.00,Wunderground v.1.15,2013-10-23 07:16:00,
2013-10-23 03:22:00,38.5,34.7,29.81,SW,224,0.0,0.0,86,0.00,,,0.00,Wunderground v.1.15,2013-10-23 07:22:00,
2013-10-23 03:27:00,38.4,34.6,29.81,North,356,0.0,1.0,86,0.00,,,0.00,Wunderground v.1.15,2013-10-23 07:27:00,
2013-10-23 03:32:00,38.3,34.8,29.80,SW,236,0.0,0.0,87,0.00,,,0.00,Wunderground v.1.15,2013-10-23 07:32:00,
2013-10-23 03:37:00,38.2,34.7,29.80,ESE,108,0.0,1.0,87,0.00,,,0.00,Wunderground v.1.15,2013-10-23 07:37:00,
2013-10-23 03:43:00,38.1,34.6,29.80,ESE,107,0.0,0.0,87,0.00,,,0.00,Wunderground v.1.15,2013-10-23 07:43:00,
2013-10-23 03:48:00,38.0,34.5,29.80,ESE,103,0.0,1.0,87,0.00,,,0.00,Wunderground v.1.15,2013-10-23 07:48:00,
2013-10-23 03:53:00,38.0,34.8,29.80,ESE,103,0.0,0.0,88,0.00,,,0.00,Wunderground v.1.15,2013-10-23 07:53:00,
2013-10-23 03:58:00,37.9,34.7,29.80,ESE,103,0.0,0.0,88,0.00,,,0.00,Wunderground v.1.15,2013-10-23 07:58:00,
2013-10-23 04:03:00,37.9,34.7,29.79,ESE,103,0.0,0.0,88,0.00,,,0.00,Wunderground v.1.15,2013-10-23 08:03:00,
2013-10-23 04:08:00,37.9,34.7,29.79,SE,134,0.0,0.0,88,0.00,,,0.00,Wunderground v.1.15,2013-10-23 08:08:00,
2013-10-23 04:13:00,37.7,34.5,29.79,SE,137,0.0,0.0,88,0.00,,,0.00,Wunderground v.1.15,2013-10-23 08:13:00,
2013-10-23 04:19:00,37.7,34.5,29.79,West,273,0.0,1.0,88,0.00,,,0.00,Wunderground v.1.15,2013-10-23 08:19:00,
2013-10-23 04:24:00,37.7,34.5,29.79,West,272,0.0,0.0,88,0.00,,,0.00,Wunderground v.1.15,2013-10-23 08:24:00,
2013-10-23 04:30:00,37.6,34.1,29.78,WSW,255,0.0,2.0,87,0.00,,,0.00,Wunderground v.1.15,2013-10-23 08:30:00,
2013-10-23 04:35:00,37.6,34.4,29.78,SSE,158,0.0,2.0,88,0.00,,,0.00,Wunderground v.1.15,2013-10-23 08:35:00,
2013-10-23 04:40:00,37.5,34.3,29.78,South,172,0.0,0.0,88,0.00,,,0.00,Wunderground v.1.15,2013-10-23 08:40:00,
2013-10-23 04:45:00,37.4,34.2,29.78,SW,221,0.0,2.0,88,0.00,,,0.00,Wunderground v.1.15,2013-10-23 08:45:00,
2013-10-23 04:50:00,37.3,34.1,29.78,SSE,153,0.0,0.0,88,0.00,,,0.00,Wunderground v.1.15,2013-10-23 08:50:00,
2013-10-23 04:55:00,37.3,34.1,29.78,SW,214,0.0,1.0,88,0.00,,,0.00,Wunderground v.1.15,2013-10-23 08:55:00,
2013-10-23 05:00:00,37.2,34.0,29.78,WNW,287,0.0,0.0,88,0.00,,,0.00,Wunderground v.1.15,2013-10-23 09:00:00,
2013-10-23 05:05:00,37.2,34.0,29.78,NW,322,0.0,0.0,88,0.00,,,0.00,Wunderground v.1.15,2013-10-23 09:05:00,
2013-10-23 05:11:00,37.3,34.4,29.78,NW,322,0.0,0.0,89,0.00,,,0.00,Wunderground v.1.15,2013-10-23 09:11:00,
2013-10-23 05:16:00,37.2,34.3,29.77,NW,322,0.0,0.0,89,0.00,,,0.00,Wunderground v.1.15,2013-10-23 09:16:00,
2013-10-23 05:21:00,37.2,34.3,29.77,NW,322,0.0,0.0,89,0.00,,,0.00,Wunderground v.1.15,2013-10-23 09:21:00,
2013-10-23 05:26:00,37.2,34.3,29.77,NW,321,0.0,0.0,89,0.00,,,0.00,Wunderground v.1.15,2013-10-23 09:26:00,
2013-10-23 05:31:00,37.1,34.2,29.77,NW,322,0.0,0.0,89,0.00,,,0.00,Wunderground v.1.15,2013-10-23 09:31:00,
2013-10-23 05:36:00,37.0,34.1,29.77,NW,322,0.0,0.0,89,0.00,,,0.00,Wunderground v.1.15,2013-10-23 09:36:00,
2013-10-23 05:41:00,37.1,34.4,29.77,NW,322,0.0,0.0,90,0.00,,,0.00,Wunderground v.1.15,2013-10-23 09:41:00,
2013-10-23 05:46:00,37.1,34.4,29.77,NW,322,0.0,0.0,90,0.00,,,0.00,Wunderground v.1.15,2013-10-23 09:46:00,
2013-10-23 05:51:00,37.0,34.3,29.77,NW,322,0.0,0.0,90,0.00,,,0.00,Wunderground v.1.15,2013-10-23 09:51:00,
2013-10-23 05:56:00,37.0,34.3,29.76,NW,321,0.0,0.0,90,0.00,,,0.00,Wunderground v.1.15,2013-10-23 09:56:00,
2013-10-23 06:01:00,37.0,34.3,29.76,NW,322,0.0,0.0,90,0.00,,,0.00,Wunderground v.1.15,2013-10-23 10:01:00,
2013-10-23 06:07:00,37.0,34.1,29.76,NW,321,0.0,0.0,89,0.00,,,0.00,Wunderground v.1.15,2013-10-23 10:07:00,
2013-10-23 06:12:00,37.1,34.4,29.76,NW,322,0.0,0.0,90,0.00,,,0.00,Wunderground v.1.15,2013-10-23 10:12:00,
2013-10-23 06:17:00,37.1,34.4,29.76,NW,322,0.0,0.0,90,0.00,,,0.00,Wunderground v.1.15,2013-10-23 10:17:00,
2013-10-23 06:23:00,37.1,34.4,29.76,NW,322,0.0,0.0,90,0.00,,,0.00,Wunderground v.1.15,2013-10-23 10:23:00,
2013-10-23 06:28:00,37.1,34.2,29.76,WNW,290,0.0,1.0,89,0.00,,,0.00,Wunderground v.1.15,2013-10-23 10:28:00,
2013-10-23 06:33:00,37.1,34.4,29.76,WNW,288,0.0,0.0,90,0.00,,,0.00,Wunderground v.1.15,2013-10-23 10:33:00,
2013-10-23 06:38:00,37.1,34.4,29.76,SW,225,0.0,1.0,90,0.00,,,0.01,Wunderground v.1.15,2013-10-23 10:38:00,
2013-10-23 06:43:00,37.1,34.4,29.76,SW,232,0.0,2.0,90,0.00,,,0.01,Wunderground v.1.15,2013-10-23 10:43:00,
2013-10-23 06:48:00,36.9,34.2,29.76,ESE,122,0.0,2.0,90,0.00,,,0.01,Wunderground v.1.15,2013-10-23 10:48:00,
2013-10-23 06:53:00,36.9,34.5,29.76,ESE,122,0.0,0.0,91,0.00,,,0.01,Wunderground v.1.15,2013-10-23 10:53:00,
2013-10-23 06:58:00,36.8,34.4,29.76,ESE,123,0.0,0.0,91,0.00,,,0.03,Wunderground v.1.15,2013-10-23 10:58:00,
2013-10-23 07:03:00,36.7,34.6,29.76,ESE,122,0.0,0.0,92,0.00,,,0.03,Wunderground v.1.15,2013-10-23 11:03:00,
2013-10-23 07:08:00,36.6,34.5,29.77,ENE,59,0.0,0.0,92,0.00,,,0.03,Wunderground v.1.15,2013-10-23 11:08:00,
2013-10-23 07:13:00,36.5,34.4,29.77,ENE,59,0.0,0.0,92,0.04,,,0.04,Wunderground v.1.15,2013-10-23 11:13:00,
2013-10-23 07:18:00,36.4,34.3,29.77,SW,224,0.0,0.0,92,0.04,,,0.04,Wunderground v.1.15,2013-10-23 11:18:00,
2013-10-23 07:24:00,36.2,34.1,29.78,NW,311,0.0,1.0,92,0.09,,,0.05,Wunderground v.1.15,2013-10-23 11:24:00,
2013-10-23 07:29:00,35.8,33.7,29.78,SW,221,1.0,2.0,92,0.06,,,0.07,Wunderground v.1.15,2013-10-23 11:29:00,
2013-10-23 07:34:00,35.7,33.9,29.78,SE,130,0.0,1.0,93,0.06,,,0.07,Wunderground v.1.15,2013-10-23 11:34:00,
2013-10-23 07:39:00,35.7,33.9,29.77,SE,130,0.0,1.0,93,0.06,,,0.07,Wunderground v.1.15,2013-10-23 11:39:00,
2013-10-23 07:44:00,35.7,34.1,29.77,SE,129,0.0,0.0,94,0.04,,,0.07,Wunderground v.1.15,2013-10-23 11:44:00,
2013-10-23 07:49:00,35.6,34.0,29.77,ESE,103,0.0,0.0,94,0.00,,,0.07,Wunderground v.1.15,2013-10-23 11:49:00,
2013-10-23 07:54:00,35.5,33.9,29.77,ESE,105,0.0,0.0,94,0.00,,,0.08,Wunderground v.1.15,2013-10-23 11:54:00,
2013-10-23 08:00:00,35.5,33.9,29.77,ENE,78,0.0,0.0,94,0.00,,,0.08,Wunderground v.1.15,2013-10-23 12:00:00,
2013-10-23 08:06:00,35.4,34.1,29.77,ENE,77,0.0,0.0,95,0.00,,,0.08,Wunderground v.1.15,2013-10-23 12:06:00,
2013-10-23 08:11:00,35.5,34.2,29.77,ENE,77,0.0,0.0,95,0.00,,,0.08,Wunderground v.1.15,2013-10-23 12:11:00,
2013-10-23 08:16:00,35.5,34.2,29.77,ENE,78,0.0,0.0,95,0.00,,,0.08,Wunderground v.1.15,2013-10-23 12:16:00,
2013-10-23 08:22:00,35.5,34.2,29.77,ESE,113,0.0,0.0,95,0.00,,,0.08,Wunderground v.1.15,2013-10-23 12:22:00,
2013-10-23 08:27:00,35.5,34.2,29.77,South,183,0.0,0.0,95,0.00,,,0.08,Wunderground v.1.15,2013-10-23 12:27:00,
2013-10-23 08:32:00,35.6,34.3,29.77,South,183,0.0,0.0,95,0.00,,,0.08,Wunderground v.1.15,2013-10-23 12:32:00,
2013-10-23 08:37:00,35.6,34.3,29.77,South,183,0.0,0.0,95,0.00,,,0.08,Wunderground v.1.15,2013-10-23 12:37:00,
2013-10-23 08:42:00,35.7,34.4,29.77,South,184,0.0,0.0,95,0.00,,,0.08,Wunderground v.1.15,2013-10-23 12:42:00,
2013-10-23 08:47:00,35.7,34.4,29.77,South,183,0.0,0.0,95,0.00,,,0.08,Wunderground v.1.15,2013-10-23 12:47:00,
2013-10-23 08:52:00,35.8,34.5,29.77,South,184,0.0,0.0,95,0.00,,,0.08,Wunderground v.1.15,2013-10-23 12:52:00,
2013-10-23 08:58:00,35.9,34.6,29.77,South,183,0.0,0.0,95,0.00,,,0.08,Wunderground v.1.15,2013-10-23 12:58:00,
2013-10-23 09:03:00,36.0,34.7,29.77,South,183,0.0,1.0,95,0.00,,,0.08,Wunderground v.1.15,2013-10-23 13:03:00,
2013-10-23 09:08:00,36.1,34.8,29.77,ESE,123,0.0,1.0,95,0.00,,,0.08,Wunderground v.1.15,2013-10-23 13:08:00,
2013-10-23 09:13:00,36.3,35.0,29.77,ESE,123,0.0,1.0,95,0.00,,,0.08,Wunderground v.1.15,2013-10-23 13:13:00,
2013-10-23 09:18:00,36.6,35.3,29.77,WSW,249,0.0,1.0,95,0.00,,,0.08,Wunderground v.1.15,2013-10-23 13:18:00,
2013-10-23 09:24:00,36.7,35.4,29.78,South,176,0.0,1.0,95,0.00,,,0.08,Wunderground v.1.15,2013-10-23 13:24:00,
2013-10-23 09:29:00,36.8,35.5,29.78,WSW,248,0.0,1.0,95,0.00,,,0.08,Wunderground v.1.15,2013-10-23 13:29:00,
2013-10-23 09:34:00,37.0,35.7,29.78,South,190,0.0,1.0,95,0.00,,,0.08,Wunderground v.1.15,2013-10-23 13:34:00,
2013-10-23 09:39:00,37.1,35.8,29.77,SSW,198,0.0,1.0,95,0.00,,,0.08,Wunderground v.1.15,2013-10-23 13:39:00,
2013-10-23 09:44:00,37.2,35.9,29.77,ESE,121,0.0,1.0,95,0.00,,,0.08,Wunderground v.1.15,2013-10-23 13:44:00,
2013-10-23 09:49:00,37.1,35.5,29.77,SW,229,0.0,2.0,94,0.00,,,0.08,Wunderground v.1.15,2013-10-23 13:49:00,
2013-10-23 09:55:00,37.2,35.6,29.77,WSW,248,1.0,1.0,94,0.00,,,0.08,Wunderground v.1.15,2013-10-23 13:55:00,
2013-10-23 10:00:00,37.3,35.7,29.77,WSW,253,0.0,1.0,94,0.00,,,0.08,Wunderground v.1.15,2013-10-23 14:00:00,
2013-10-23 10:05:00,37.5,35.9,29.77,WSW,245,0.0,1.0,94,0.00,,,0.08,Wunderground v.1.15,2013-10-23 14:05:00,
2013-10-23 10:10:00,37.6,36.0,29.77,WSW,245,0.0,1.0,94,0.00,,,0.08,Wunderground v.1.15,2013-10-23 14:10:00,
2013-10-23 10:15:00,37.8,36.2,29.77,WSW,239,0.0,1.0,94,0.00,,,0.08,Wunderground v.1.15,2013-10-23 14:15:00,
2013-10-23 10:21:00,38.0,36.2,29.78,SW,226,0.0,1.0,93,0.00,,,0.08,Wunderground v.1.15,2013-10-23 14:21:00,
2013-10-23 10:26:00,38.0,36.2,29.78,SW,229,0.0,1.0,93,0.00,,,0.08,Wunderground v.1.15,2013-10-23 14:26:00,
2013-10-23 10:31:00,38.2,36.4,29.78,SW,229,0.0,0.0,93,0.00,,,0.08,Wunderground v.1.15,2013-10-23 14:31:00,
2013-10-23 10:36:00,38.3,36.2,29.77,SW,229,0.0,0.0,92,0.00,,,0.08,Wunderground v.1.15,2013-10-23 14:36:00,
2013-10-23 10:41:00,38.5,36.7,29.77,SW,229,0.0,0.0,93,0.00,,,0.08,Wunderground v.1.15,2013-10-23 14:41:00,
2013-10-23 10:46:00,38.6,36.8,29.77,West,266,0.0,1.0,93,0.00,,,0.08,Wunderground v.1.15,2013-10-23 14:46:00,
2013-10-23 10:51:00,38.7,36.6,29.77,WSW,255,0.0,1.0,92,0.00,,,0.08,Wunderground v.1.15,2013-10-23 14:51:00,
2013-10-23 10:56:00,38.8,36.7,29.77,WNW,302,0.0,1.0,92,0.00,,,0.08,Wunderground v.1.15,2013-10-23 14:56:00,
2013-10-23 11:02:00,39.0,36.9,29.77,SW,226,0.0,1.0,92,0.00,,,0.08,Wunderground v.1.15,2013-10-23 15:02:00,
2013-10-23 11:07:00,39.2,36.8,29.77,WNW,303,0.0,1.0,91,0.00,,,0.08,Wunderground v.1.15,2013-10-23 15:07:00,
2013-10-23 11:12:00,39.2,36.5,29.77,NNW,328,0.0,0.0,90,0.00,,,0.08,Wunderground v.1.15,2013-10-23 15:12:00,
2013-10-23 11:17:00,39.3,36.6,29.77,SW,231,1.0,1.0,90,0.00,,,0.08,Wunderground v.1.15,2013-10-23 15:17:00,
2013-10-23 11:23:00,39.5,37.1,29.77,SSW,212,1.0,1.0,91,0.00,,,0.08,Wunderground v.1.15,2013-10-23 15:23:00,
2013-10-23 11:29:00,39.6,36.6,29.77,SW,229,1.0,3.0,89,0.00,,,0.08,Wunderground v.1.15,2013-10-23 15:29:00,
2013-10-23 11:34:00,39.7,36.7,29.77,WSW,245,1.0,3.0,89,0.00,,,0.08,Wunderground v.1.15,2013-10-23 15:34:00,
2013-10-23 11:39:00,39.6,36.6,29.77,NW,309,1.0,4.0,89,0.00,,,0.08,Wunderground v.1.15,2013-10-23 15:39:00,
2013-10-23 11:44:00,39.8,37.1,29.77,West,261,1.0,2.0,90,0.00,,,0.08,Wunderground v.1.15,2013-10-23 15:44:00,
2013-10-23 11:49:00,39.9,36.9,29.77,SW,226,1.0,2.0,89,0.00,,,0.08,Wunderground v.1.15,2013-10-23 15:49:00,
2013-10-23 11:54:00,39.9,36.9,29.77,West,274,1.0,3.0,89,0.00,,,0.08,Wunderground v.1.15,2013-10-23 15:54:00,
2013-10-23 11:59:00,40.0,36.7,29.77,West,281,1.0,3.0,88,0.00,,,0.08,Wunderground v.1.15,2013-10-23 15:59:00,
2013-10-23 12:05:00,39.9,36.6,29.77,West,260,2.0,2.0,88,0.00,,,0.08,Wunderground v.1.15,2013-10-23 16:05:00,
2013-10-23 12:10:00,39.9,36.6,29.77,WNW,284,2.0,2.0,88,0.00,,,0.08,Wunderground v.1.15,2013-10-23 16:10:00,
2013-10-23 12:15:00,39.8,36.5,29.77,North,354,1.0,2.0,88,0.00,,,0.08,Wunderground v.1.15,2013-10-23 16:15:00,
2013-10-23 12:20:00,39.8,36.2,29.77,WSW,256,1.0,1.0,87,0.00,,,0.08,Wunderground v.1.15,2013-10-23 16:20:00,
2013-10-23 12:26:00,40.0,36.4,29.77,SW,233,1.0,2.0,87,0.00,,,0.08,Wunderground v.1.15,2013-10-23 16:26:00,
2013-10-23 12:31:00,40.3,36.7,29.77,SE,144,1.0,1.0,87,0.00,,,0.08,Wunderground v.1.15,2013-10-23 16:31:00,
2013-10-23 12:36:00,40.5,36.6,29.77,SW,231,1.0,3.0,86,0.00,,,0.08,Wunderground v.1.15,2013-10-23 16:36:00,
2013-10-23 12:41:00,40.6,36.7,29.77,WSW,252,1.0,1.0,86,0.00,,,0.08,Wunderground v.1.15,2013-10-23 16:41:00,
2013-10-23 12:47:00,40.8,37.2,29.77,SW,231,1.0,2.0,87,0.00,,,0.08,Wunderground v.1.15,2013-10-23 16:47:00,
2013-10-23 12:52:00,40.8,36.9,29.77,SW,232,2.0,4.0,86,0.00,,,0.08,Wunderground v.1.15,2013-10-23 16:52:00,
2013-10-23 12:58:00,40.6,36.7,29.77,WSW,256,3.0,4.0,86,0.00,,,0.08,Wunderground v.1.15,2013-10-23 16:58:00,
2013-10-23 13:03:00,40.5,36.9,29.76,West,268,2.0,2.0,87,0.00,,,0.08,Wunderground v.1.15,2013-10-23 17:03:00,
2013-10-23 13:08:00,40.5,37.2,29.76,WNW,283,1.0,2.0,88,0.00,,,0.08,Wunderground v.1.15,2013-10-23 17:08:00,
2013-10-23 13:13:00,40.4,37.1,29.76,WSW,252,2.0,3.0,88,0.00,,,0.09,Wunderground v.1.15,2013-10-23 17:13:00,
2013-10-23 13:18:00,39.8,36.2,29.76,WSW,246,3.0,4.0,87,0.00,,,0.09,Wunderground v.1.15,2013-10-23 17:18:00,
2013-10-23 13:23:00,39.3,36.0,29.76,SW,233,3.0,4.0,88,0.00,,,0.09,Wunderground v.1.15,2013-10-23 17:23:00,
2013-10-23 13:29:00,39.2,36.2,29.76,West,264,2.0,4.0,89,0.00,,,0.09,Wunderground v.1.15,2013-10-23 17:29:00,
2013-10-23 13:34:00,39.5,37.1,29.76,SW,226,2.0,2.0,91,0.00,,,0.09,Wunderground v.1.15,2013-10-23 17:34:00,
2013-10-23 13:39:00,39.7,37.0,29.76,SW,214,1.0,2.0,90,0.00,,,0.09,Wunderground v.1.15,2013-10-23 17:39:00,
2013-10-23 13:44:00,39.9,37.2,29.76,West,270,2.0,4.0,90,0.00,,,0.09,Wunderground v.1.15,2013-10-23 17:44:00,
2013-10-23 13:49:00,40.1,37.1,29.76,WNW,293,1.0,4.0,89,0.00,,,0.09,Wunderground v.1.15,2013-10-23 17:49:00,
2013-10-23 13:54:00,40.4,37.1,29.76,SW,219,1.0,2.0,88,0.00,,,0.09,Wunderground v.1.15,2013-10-23 17:54:00,
2013-10-23 14:00:00,41.0,38.0,29.76,West,274,1.0,1.0,89,0.00,,,0.09,Wunderground v.1.15,2013-10-23 18:00:00,
2013-10-23 14:05:00,41.5,38.2,29.76,West,270,1.0,2.0,88,0.00,,,0.09,Wunderground v.1.15,2013-10-23 18:05:00,
2013-10-23 14:10:00,41.8,38.2,29.76,West,278,1.0,2.0,87,0.00,,,0.09,Wunderground v.1.15,2013-10-23 18:10:00,
2013-10-23 14:15:00,41.9,38.0,29.75,WSW,242,1.0,2.0,86,0.00,,,0.09,Wunderground v.1.15,2013-10-23 18:15:00,
2013-10-23 14:21:00,42.3,38.7,29.76,West,280,2.0,2.0,87,0.00,,,0.09,Wunderground v.1.15,2013-10-23 18:21:00,
2013-10-23 14:26:00,42.2,37.4,29.76,WNW,285,2.0,8.0,83,0.00,,,0.09,Wunderground v.1.15,2013-10-23 18:26:00,
2013-10-23 14:31:00,42.5,38.3,29.75,ENE,77,2.0,2.0,85,0.00,,,0.09,Wunderground v.1.15,2013-10-23 18:31:00,
2013-10-23 14:36:00,42.7,37.3,29.75,WNW,289,2.0,4.0,81,0.00,,,0.09,Wunderground v.1.15,2013-10-23 18:36:00,
2013-10-23 14:42:00,43.0,38.2,29.75,WNW,285,2.0,2.0,83,0.00,,,0.09,Wunderground v.1.15,2013-10-23 18:42:00,
2013-10-23 14:47:00,43.0,37.6,29.75,NW,314,3.0,5.0,81,0.00,,,0.09,Wunderground v.1.15,2013-10-23 18:47:00,
2013-10-23 14:52:00,42.8,37.1,29.75,WNW,298,3.0,3.0,80,0.00,,,0.09,Wunderground v.1.15,2013-10-23 18:52:00,
2013-10-23 14:57:00,42.6,36.5,29.75,NW,319,3.0,4.0,79,0.00,,,0.09,Wunderground v.1.15,2013-10-23 18:57:00,
2013-10-23 15:03:00,42.7,37.3,29.75,WNW,290,2.0,2.0,81,0.00,,,0.09,Wunderground v.1.15,2013-10-23 19:03:00,
2013-10-23 15:08:00,42.9,36.2,29.76,SW,226,2.0,7.0,77,0.00,,,0.09,Wunderground v.1.15,2013-10-23 19:08:00,
2013-10-23 15:13:00,42.8,36.4,29.76,North,11,2.0,2.0,78,0.00,,,0.09,Wunderground v.1.15,2013-10-23 19:13:00,
2013-10-23 15:18:00,42.7,35.7,29.76,West,278,2.0,4.0,76,0.00,,,0.09,Wunderground v.1.15,2013-10-23 19:18:00,
2013-10-23 15:23:00,42.7,35.7,29.76,SW,232,3.0,8.0,76,0.00,,,0.09,Wunderground v.1.15,2013-10-23 19:23:00,
2013-10-23 15:28:00,42.4,35.7,29.77,NW,304,3.0,8.0,77,0.00,,,0.09,Wunderground v.1.15,2013-10-23 19:28:00,
2013-10-23 15:34:00,41.2,36.1,29.77,WNW,283,4.0,7.0,82,0.00,,,0.09,Wunderground v.1.15,2013-10-23 19:34:00,
2013-10-23 15:39:00,40.4,35.6,29.77,WSW,257,2.0,7.0,83,0.00,,,0.09,Wunderground v.1.15,2013-10-23 19:39:00,
2013-10-23 15:44:00,40.1,36.2,29.77,NNW,330,2.0,4.0,86,0.00,,,0.09,Wunderground v.1.15,2013-10-23 19:44:00,
2013-10-23 15:49:00,39.8,36.0,29.78,NW,308,1.0,4.0,86,0.00,,,0.09,Wunderground v.1.15,2013-10-23 19:49:00,
2013-10-23 15:55:00,39.8,36.5,29.78,WNW,297,0.0,1.0,88,0.00,,,0.11,Wunderground v.1.15,2013-10-23 19:55:00,
2013-10-23 16:00:00,40.3,37.6,29.78,WNW,293,0.0,1.0,90,0.00,,,0.11,Wunderground v.1.15,2013-10-23 20:00:00,
2013-10-23 16:05:00,40.4,37.1,29.78,West,260,0.0,2.0,88,0.00,,,0.11,Wunderground v.1.15,2013-10-23 20:05:00,
2013-10-23 16:10:00,40.5,37.5,29.77,NW,310,0.0,1.0,89,0.00,,,0.11,Wunderground v.1.15,2013-10-23 20:10:00,
2013-10-23 16:16:00,41.0,38.3,29.77,WNW,300,0.0,1.0,90,0.00,,,0.11,Wunderground v.1.15,2013-10-23 20:16:00,
2013-10-23 16:21:00,41.5,38.5,29.77,West,271,0.0,1.0,89,0.00,,,0.11,Wunderground v.1.15,2013-10-23 20:21:00,
2013-10-23 16:26:00,41.9,38.6,29.77,SW,224,0.0,1.0,88,0.00,,,0.11,Wunderground v.1.15,2013-10-23 20:26:00,
2013-10-23 16:32:00,42.3,38.7,29.77,NNW,342,1.0,2.0,87,0.00,,,0.11,Wunderground v.1.15,2013-10-23 20:32:00,
2013-10-23 16:37:00,42.5,38.3,29.77,WSW,245,2.0,2.0,85,0.00,,,0.11,Wunderground v.1.15,2013-10-23 20:37:00,
2013-10-23 16:42:00,42.6,37.5,29.77,WNW,297,2.0,4.0,82,0.00,,,0.11,Wunderground v.1.15,2013-10-23 20:42:00,
2013-10-23 16:48:00,42.5,37.1,29.77,SW,226,2.0,9.0,81,0.00,,,0.11,Wunderground v.1.15,2013-10-23 20:48:00,
2013-10-23 16:53:00,42.3,36.9,29.78,West,268,4.0,10.0,81,0.00,,,0.11,Wunderground v.1.15,2013-10-23 20:53:00,
2013-10-23 16:58:00,41.7,36.6,29.79,West,280,4.0,10.0,82,0.00,,,0.11,Wunderground v.1.15,2013-10-23 20:58:00,
2013-10-23 17:03:00,40.7,35.9,29.79,WSW,240,5.0,6.0,83,0.00,,,0.11,Wunderground v.1.15,2013-10-23 21:03:00,
2013-10-23 17:09:00,39.9,35.5,29.80,NW,306,5.0,7.0,84,0.00,,,0.11,Wunderground v.1.15,2013-10-23 21:09:00,
2013-10-23 17:14:00,39.5,35.4,29.80,NW,318,5.0,8.0,85,0.00,,,0.11,Wunderground v.1.15,2013-10-23 21:14:00,
2013-10-23 17:19:00,39.5,35.7,29.80,WSW,239,3.0,8.0,86,0.00,,,0.11,Wunderground v.1.15,2013-10-23 21:19:00,
2013-10-23 17:24:00,39.5,35.7,29.80,WSW,240,2.0,3.0,86,0.00,,,0.11,Wunderground v.1.15,2013-10-23 21:24:00,
2013-10-23 17:30:00,39.4,35.3,29.80,SW,215,2.0,3.0,85,0.00,,,0.11,Wunderground v.1.15,2013-10-23 21:30:00,
2013-10-23 17:35:00,39.3,35.2,29.80,West,270,2.0,3.0,85,0.00,,,0.11,Wunderground v.1.15,2013-10-23 21:35:00,
2013-10-23 17:40:00,39.3,34.9,29.80,SW,226,1.0,1.0,84,0.00,,,0.11,Wunderground v.1.15,2013-10-23 21:40:00,
2013-10-23 17:45:00,39.4,35.3,29.80,SW,232,1.0,2.0,85,0.00,,,0.11,Wunderground v.1.15,2013-10-23 21:45:00,
2013-10-23 17:51:00,39.3,34.9,29.80,NW,319,1.0,1.0,84,0.00,,,0.11,Wunderground v.1.15,2013-10-23 21:51:00,
2013-10-23 17:56:00,39.3,35.2,29.81,WNW,282,1.0,2.0,85,0.00,,,0.11,Wunderground v.1.15,2013-10-23 21:56:00,
2013-10-23 18:01:00,39.4,35.3,29.81,West,281,1.0,1.0,85,0.00,,,0.11,Wunderground v.1.15,2013-10-23 22:01:00,
2013-10-23 18:07:00,39.2,35.4,29.81,WSW,253,1.0,2.0,86,0.00,,,0.12,Wunderground v.1.15,2013-10-23 22:07:00,
2013-10-23 18:12:00,38.8,35.3,29.81,West,273,1.0,2.0,87,0.11,,,0.13,Wunderground v.1.15,2013-10-23 22:12:00,
2013-10-23 18:17:00,38.7,35.5,29.82,SW,236,1.0,2.0,88,0.07,,,0.15,Wunderground v.1.15,2013-10-23 22:17:00,
2013-10-23 18:22:00,38.6,35.6,29.82,WNW,287,1.0,1.0,89,0.07,,,0.15,Wunderground v.1.15,2013-10-23 22:22:00,
2013-10-23 18:28:00,38.6,35.6,29.82,WNW,298,1.0,2.0,89,0.05,,,0.15,Wunderground v.1.15,2013-10-23 22:28:00,
2013-10-23 18:33:00,38.7,36.0,29.82,WSW,245,0.0,1.0,90,0.04,,,0.15,Wunderground v.1.15,2013-10-23 22:33:00,
2013-10-23 18:38:00,38.7,35.7,29.83,WSW,238,0.0,1.0,89,0.00,,,0.15,Wunderground v.1.15,2013-10-23 22:38:00,
2013-10-23 18:44:00,38.7,36.0,29.83,SW,219,0.0,1.0,90,0.00,,,0.15,Wunderground v.1.15,2013-10-23 22:44:00,
2013-10-23 18:49:00,38.6,36.2,29.83,South,170,0.0,1.0,91,0.00,,,0.15,Wunderground v.1.15,2013-10-23 22:49:00,
2013-10-23 18:54:00,38.4,36.3,29.83,SSE,162,0.0,1.0,92,0.00,,,0.15,Wunderground v.1.15,2013-10-23 22:54:00,
2013-10-23 19:00:00,38.2,36.1,29.83,SSE,162,0.0,1.0,92,0.00,,,0.15,Wunderground v.1.15,2013-10-23 23:00:00,
2013-10-23 19:05:00,38.1,36.3,29.83,SSE,162,0.0,1.0,93,0.00,,,0.15,Wunderground v.1.15,2013-10-23 23:05:00,
2013-10-23 19:10:00,37.9,35.8,29.83,SSW,211,0.0,1.0,92,0.00,,,0.15,Wunderground v.1.15,2013-10-23 23:10:00,
2013-10-23 19:15:00,37.5,35.4,29.83,SE,139,1.0,3.0,92,0.00,,,0.15,Wunderground v.1.15,2013-10-23 23:15:00,
2013-10-23 19:20:00,37.2,35.1,29.84,SSE,153,1.0,1.0,92,0.00,,,0.15,Wunderground v.1.15,2013-10-23 23:20:00,
2013-10-23 19:26:00,36.8,34.7,29.84,South,178,0.0,2.0,92,0.00,,,0.16,Wunderground v.1.15,2013-10-23 23:26:00,
2013-10-23 19:31:00,36.5,34.4,29.84,SSW,211,0.0,1.0,92,0.00,,,0.16,Wunderground v.1.15,2013-10-23 23:31:00,
2013-10-23 19:36:00,36.3,34.2,29.85,SW,236,0.0,3.0,92,0.05,,,0.17,Wunderground v.1.15,2013-10-23 23:36:00,
2013-10-23 19:42:00,35.9,33.8,29.85,South,190,1.0,3.0,92,0.05,,,0.17,Wunderground v.1.15,2013-10-23 23:42:00,
2013-10-23 19:47:00,35.4,33.3,29.85,SW,220,1.0,3.0,92,0.05,,,0.17,Wunderground v.1.15,2013-10-23 23:47:00,
2013-10-23 19:52:00,35.1,33.3,29.85,WNW,295,1.0,2.0,93,0.00,,,0.17,Wunderground v.1.15,2013-10-23 23:52:00,
2013-10-23 19:57:00,34.9,33.1,29.85,NNE,25,0.0,2.0,93,0.00,,,0.17,Wunderground v.1.15,2013-10-23 23:57:00,
2013-10-23 20:03:00,34.8,33.0,29.85,NE,34,0.0,1.0,93,0.00,,,0.17,Wunderground v.1.15,2013-10-24 00:03:00,
2013-10-23 20:08:00,34.8,33.2,29.85,NE,34,0.0,1.0,94,0.00,,,0.17,Wunderground v.1.15,2013-10-24 00:08:00,
2013-10-23 20:13:00,34.5,33.0,29.85,ENE,77,0.0,1.0,94,0.00,,,0.17,Wunderground v.1.15,2013-10-24 00:13:00,
2013-10-23 20:19:00,34.5,33.0,29.87,ESE,113,0.0,1.0,94,0.00,,,0.17,Wunderground v.1.15,2013-10-24 00:19:00,
2013-10-23 20:24:00,34.6,33.3,29.87,WSW,248,0.0,1.0,95,0.00,,,0.17,Wunderground v.1.15,2013-10-24 00:24:00,
2013-10-23 20:29:00,34.6,33.3,29.87,SW,228,0.0,1.0,95,0.00,,,0.17,Wunderground v.1.15,2013-10-24 00:29:00,
2013-10-23 20:34:00,34.5,33.0,29.86,ESE,104,0.0,1.0,94,0.00,,,0.17,Wunderground v.1.15,2013-10-24 00:34:00,
2013-10-23 20:40:00,34.4,33.1,29.86,East,92,0.0,1.0,95,0.00,,,0.17,Wunderground v.1.15,2013-10-24 00:40:00,
2013-10-23 20:45:00,34.4,33.1,29.86,East,94,0.0,1.0,95,0.00,,,0.19,Wunderground v.1.15,2013-10-24 00:45:00,
2013-10-23 20:50:00,34.4,33.1,29.86,East,93,0.0,1.0,95,0.00,,,0.19,Wunderground v.1.15,2013-10-24 00:50:00,
2013-10-23 20:56:00,34.3,33.0,29.86,East,93,0.0,1.0,95,0.00,,,0.19,Wunderground v.1.15,2013-10-24 00:56:00,
2013-10-23 21:01:00,34.2,32.9,29.86,ESE,114,0.0,1.0,95,0.00,,,0.19,Wunderground v.1.15,2013-10-24 01:01:00,
2013-10-23 21:06:00,33.9,32.6,29.87,ESE,115,0.0,1.0,95,0.00,,,0.19,Wunderground v.1.15,2013-10-24 01:06:00,
2013-10-23 21:12:00,33.7,32.4,29.87,ESE,112,0.0,1.0,95,0.00,,,0.19,Wunderground v.1.15,2013-10-24 01:12:00,
2013-10-23 21:17:00,33.6,32.3,29.87,ESE,113,0.0,1.0,95,0.00,,,0.19,Wunderground v.1.15,2013-10-24 01:17:00,
2013-10-23 21:22:00,33.6,32.3,29.87,ESE,113,0.0,1.0,95,0.00,,,0.19,Wunderground v.1.15,2013-10-24 01:22:00,
2013-10-23 21:27:00,33.6,32.6,29.87,ESE,113,0.0,1.0,96,0.00,,,0.19,Wunderground v.1.15,2013-10-24 01:27:00,
2013-10-23 21:33:00,33.7,32.7,29.86,ESE,113,0.0,1.0,96,0.00,,,0.19,Wunderground v.1.15,2013-10-24 01:33:00,
2013-10-23 21:38:00,33.7,32.7,29.87,SE,127,0.0,1.0,96,0.00,,,0.19,Wunderground v.1.15,2013-10-24 01:38:00,
2013-10-23 21:43:00,33.7,32.7,29.87,SE,127,0.0,1.0,96,0.00,,,0.19,Wunderground v.1.15,2013-10-24 01:43:00,
2013-10-23 21:49:00,33.7,32.7,29.87,ESE,110,0.0,1.0,96,0.00,,,0.19,Wunderground v.1.15,2013-10-24 01:49:00,
2013-10-23 21:54:00,33.9,32.9,29.87,ESE,111,0.0,1.0,96,0.00,,,0.19,Wunderground v.1.15,2013-10-24 01:54:00,
2013-10-23 21:59:00,34.0,33.0,29.87,ESE,110,0.0,1.0,96,0.00,,,0.19,Wunderground v.1.15,2013-10-24 01:59:00,
2013-10-23 22:05:00,33.9,32.9,29.87,ESE,110,0.0,1.0,96,0.00,,,0.19,Wunderground v.1.15,2013-10-24 02:05:00,
2013-10-23 22:10:00,33.7,32.7,29.87,ESE,110,0.0,1.0,96,0.00,,,0.19,Wunderground v.1.15,2013-10-24 02:10:00,
2013-10-23 22:16:00,33.5,32.5,29.87,ESE,110,0.0,1.0,96,0.00,,,0.19,Wunderground v.1.15,2013-10-24 02:16:00,
2013-10-23 22:21:00,33.3,32.3,29.87,ESE,110,0.0,1.0,96,0.00,,,0.19,Wunderground v.1.15,2013-10-24 02:21:00,
2013-10-23 22:26:00,33.1,32.1,29.87,ESE,110,0.0,1.0,96,0.00,,,0.20,Wunderground v.1.15,2013-10-24 02:26:00,
2013-10-23 22:32:00,33.0,32.0,29.87,ESE,110,0.0,1.0,96,0.00,,,0.20,Wunderground v.1.15,2013-10-24 02:32:00,
2013-10-23 22:37:00,32.8,31.8,29.87,ESE,110,0.0,1.0,96,0.00,,,0.20,Wunderground v.1.15,2013-10-24 02:37:00,
2013-10-23 22:42:00,32.8,31.8,29.87,ESE,110,0.0,1.0,96,0.00,,,0.20,Wunderground v.1.15,2013-10-24 02:42:00,
2013-10-23 22:48:00,32.7,31.7,29.88,ESE,110,0.0,1.0,96,0.00,,,0.20,Wunderground v.1.15,2013-10-24 02:48:00,
2013-10-23 22:53:00,32.8,31.8,29.88,ESE,110,0.0,1.0,96,0.00,,,0.20,Wunderground v.1.15,2013-10-24 02:53:00,
2013-10-23 22:59:00,32.9,31.9,29.87,ESE,110,0.0,1.0,96,0.00,,,0.20,Wunderground v.1.15,2013-10-24 02:59:00,
2013-10-23 23:04:00,33.1,32.3,29.87,ESE,107,0.0,1.0,97,0.00,,,0.20,Wunderground v.1.15,2013-10-24 03:04:00,
2013-10-23 23:10:00,33.2,32.4,29.87,ESE,107,0.0,1.0,97,0.00,,,0.20,Wunderground v.1.15,2013-10-24 03:10:00,
2013-10-23 23:15:00,33.2,32.4,29.87,ESE,106,0.0,1.0,97,0.00,,,0.20,Wunderground v.1.15,2013-10-24 03:15:00,
2013-10-23 23:20:00,33.3,32.5,29.87,WNW,287,0.0,1.0,97,0.00,,,0.20,Wunderground v.1.15,2013-10-24 03:20:00,
2013-10-23 23:25:00,33.4,32.6,29.87,NE,54,0.0,1.0,97,0.00,,,0.20,Wunderground v.1.15,2013-10-24 03:25:00,
2013-10-23 23:31:00,33.5,32.7,29.87,ENE,61,0.0,1.0,97,0.00,,,0.20,Wunderground v.1.15,2013-10-24 03:31:00,
2013-10-23 23:36:00,33.5,32.7,29.87,West,278,0.0,1.0,97,0.00,,,0.20,Wunderground v.1.15,2013-10-24 03:36:00,
2013-10-23 23:42:00,33.7,32.9,29.88,ESE,121,0.0,1.0,97,0.00,,,0.20,Wunderground v.1.15,2013-10-24 03:42:00,
2013-10-23 23:47:00,33.7,32.9,29.87,SW,229,0.0,2.0,97,0.00,,,0.20,Wunderground v.1.15,2013-10-24 03:47:00,
2013-10-23 23:53:00,33.9,33.1,29.87,SSE,152,1.0,4.0,97,0.00,,,0.20,Wunderground v.1.15,2013-10-24 03:53:00,
2013-10-23 23:58:00,34.0,33.2,29.87,WSW,240,1.0,4.0,97,0.00,,,0.20,Wunderground v.1.15,2013-10-24 03:58:00,